Total_Precipitation_Accumulation
1.81 2.28 2.79 3.26 3.97 4.95 5.97 6.44 6.31 5.76 5.27 4.91 4.60 4.33 3.97 3.66 3.52 3.22 2.88 2.85 2.85 2.90 3.21 2.94 3.33 3.32 3.42 3.44 3.42 3.60 3.54 3.29 3.42 3.98 3.98 3.52 3.21 3.18 3.04 2.89 3.01 2.81 2.74
1.88 2.38 2.96 3.34 3.69 4.28 5.11 5.52 5.25 4.69 4.09 3.90 3.83 3.79 3.71 3.28 3.04 2.98 2.99 2.67 2.70 2.80 2.89 3.10 2.97 3.04 3.27 3.15 3.11 3.46 3.44 3.06 3.19 3.80 4.12 3.93 3.92 3.59 2.86 2.86 2.99 2.92 2.92
1.67 2.40 2.96 3.23 3.50 3.78 3.87 4.01 3.95 3.55 3.27 3.20 3.20 3.24 3.44 3.19 2.89 2.81 2.78 2.55 2.46 2.46 2.63 2.74 2.89 3.05 2.95 3.05 3.13 3.22 3.35 3.27 3.15 3.28 3.92 3.91 3.77 3.63 3.28 2.90 2.82 2.98 3.17
1.51 2.25 2.58 2.71 2.77 2.86 2.75 2.84 2.95 2.90 2.91 2.84 2.88 2.76 2.64 2.64 2.52 2.52 2.48 2.46 2.35 2.28 2.22 2.39 2.67 2.84 2.79 3.05 2.76 2.94 3.24 3.36 3.11 3.16 3.27 3.30 3.43 3.61 3.44 3.04 2.72 2.73 2.78
1.22 1.54 1.67 1.83 1.90 1.96 2.00 2.25 2.63 2.81 2.75 2.68 2.82 2.81 2.48 2.34 2.27 2.30 2.46 2.46 2.34 2.22 2.10 2.21 2.48 2.64 2.72 2.84 2.85 3.16 3.10 3.04 3.04 3.06 3.18 3.33 3.30 3.12 3.18 3.20 2.92 2.73 2.50
0.91 1.08 1.20 1.31 1.38 1.42 1.53 1.79 2.24 2.51 2.50 2.50 2.52 2.44 2.39 2.37 2.33 2.30 2.35 2.29 2.23 2.31 2.39 2.37 2.46 2.45 2.53 2.62 2.72 2.95 2.97 2.95 3.01 2.91 2.85 3.14 3.30 3.29 3.33 3.17 2.90 2.74 2.45
0.81 0.94 1.14 1.23 1.18 1.13 1.25 1.44 1.75 1.93 1.94 2.03 2.20 2.29 2.36 2.34 2.19 2.16 2.14 2.08 1.90 2.01 2.29 2.47 2.57 2.59 2.60 2.56 2.67 2.72 2.74 2.82 2.95 2.87 2.75 2.77 2.82 3.05 3.28 3.31 2.93 2.71 2.43
0.70 0.78 0.93 0.96 0.96 1.03 1.10 1.24 1.40 1.50 1.59 1.69 1.89 2.09 2.13 2.12 2.07 2.23 2.11 1.96 1.74 1.69 1.92 2.21 2.33 2.35 2.34 2.37 2.83 2.62 2.55 2.72 2.79 2.70 3.03 2.87 2.65 2.86 3.06 3.24 3.34 3.11 2.92
0.56 0.61 0.72 0.78 0.82 0.99 1.09 1.13 1.23 1.34 1.45 1.54 1.82 2.00 2.00 1.95 2.00 2.10 2.01 1.82 1.84 1.73 1.80 1.87 2.17 2.30 2.30 2.36 2.61 2.55 2.50 2.65 2.63 2.77 3.04 2.98 2.80 2.81 2.84 3.10 3.46 3.70 3.49
0.53 0.59 0.64 0.73 0.73 0.75 0.90 1.01 1.09 1.27 1.46 1.54 1.60 1.63 1.80 1.78 1.77 1.72 1.69 1.77 1.81 1.76 1.84 1.94 1.96 2.08 2.24 2.38 2.55 2.41 2.36 2.50 2.58 2.73 2.90 2.88 2.75 2.79 2.72 2.85 3.17 3.50 3.60
0.63 0.62 0.69 0.71 0.68 0.66 0.80 0.93 1.03 1.17 1.28 1.30 1.36 1.48 1.59 1.59 1.56 1.55 1.53 1.64 1.68 1.72 1.75 1.82 1.92 1.96 2.08 2.36 2.66 2.56 2.55 2.60 2.60 2.59 2.76 2.84 2.98 3.01 2.89 2.89 2.93 3.12 3.36
0.80 0.78 0.82 0.79 0.78 0.79 0.83 0.92 0.90 0.95 1.03 1.12 1.21 1.30 1.44 1.48 1.48 1.51 1.63 1.73 1.73 1.70 1.63 1.71 1.79 1.74 1.88 2.18 2.47 2.60 2.72 2.85 2.80 2.83 3.00 2.99 2.99 2.95 2.85 2.91 2.89 2.93 3.20
0.82 0.99 1.02 0.88 0.83 0.83 0.88 0.91 0.86 0.87 0.94 1.02 1.09 1.18 1.33 1.52 1.61 1.66 1.69 1.80 1.85 1.82 1.82 1.85 1.82 1.94 2.08 2.16 2.32 2.48 2.54 2.65 2.71 2.84 2.90 2.86 2.98 2.87 2.85 2.74 2.71 2.76 2.93
0.83 1.00 1.15 0.91 0.79 0.77 0.81 0.87 0.84 0.80 0.84 1.01 1.17 1.28 1.50 1.70 1.77 1.79 1.83 1.85 1.89 1.89 1.93 1.94 1.96 2.06 2.14 2.11 2.17 2.33 2.44 2.50 2.56 2.69 2.77 2.83 2.85 2.88 3.00 2.85 2.82 2.96 3.08
0.83 0.87 0.99 0.96 0.86 0.83 0.83 0.87 0.95 0.96 0.97 1.19 1.39 1.61 1.80 1.86 1.89 1.94 1.96 2.00 2.03 1.93 2.04 2.10 2.07 2.06 1.97 1.88 2.14 2.28 2.28 2.47 2.50 2.50 2.48 2.56 2.80 2.85 2.88 2.66 2.80 3.01 3.02
0.89 1.00 1.05 1.04 1.03 1.00 1.03 1.11 1.18 1.27 1.40 1.57 1.73 1.82 1.89 1.93 1.87 1.87 1.89 2.04 2.10 2.15 2.26 2.29 2.30 2.21 1.94 2.14 2.18 2.19 2.32 2.45 2.45 2.44 2.38 2.28 2.30 2.38 2.50 2.51 2.53 2.66 2.79
1.06 1.16 1.23 1.22 1.25 1.25 1.34 1.48 1.46 1.53 1.70 1.86 2.02 2.00 1.95 1.98 1.95 1.99 2.02 2.03 2.16 2.30 2.34 2.31 2.34 2.30 2.29 2.27 2.00 1.93 1.95 2.05 2.09 2.08 2.08 1.87 1.78 2.12 2.17 2.34 2.31 2.19 2.22
1.06 1.20 1.29 1.29 1.25 1.31 1.43 1.66 1.77 1.78 1.92 2.03 2.12 2.17 2.20 2.27 2.35 2.45 2.45 2.49 2.54 2.59 2.54 2.47 2.50 2.54 2.47 2.46 2.10 1.99 1.87 1.88 1.86 1.83 1.81 1.85 1.85 1.89 2.07 2.15 2.12 2.02 1.97
1.18 1.33 1.34 1.31 1.33 1.52 1.59 1.66 1.78 1.82 1.98 2.17 2.32 2.40 2.46 2.51 2.55 2.58 2.71 2.86 3.01 3.07 2.99 2.94 2.97 2.94 2.97 2.96 2.56 2.39 2.12 2.03 1.92 1.93 1.98 2.01 1.86 1.91 1.95 1.99 1.96 1.91 1.93
1.30 1.46 1.51 1.47 1.56 1.83 1.89 1.98 2.07 2.12 2.20 2.30 2.45 2.65 2.78 2.84 2.83 2.90 3.09 3.28 3.46 3.50 3.50 3.51 3.51 3.41 3.37 3.32 2.89 2.70 2.42 2.35 2.27 2.29 2.14 2.04 1.84 1.77 1.72 1.73 1.78 1.70 1.69
1.28 1.44 1.52 1.53 1.60 1.82 2.03 2.31 2.44 2.48 2.48 2.52 2.65 2.80 2.91 3.05 3.12 3.24 3.36 3.55 3.71 3.71 3.66 3.62 3.58 3.44 3.34 3.21 2.85 2.66 2.45 2.47 2.48 2.36 2.24 2.07 1.91 1.70 1.64 1.59 1.58 1.61 1.71
1.33 1.41 1.54 1.62 1.72 1.85 2.11 2.38 2.57 2.71 2.77 2.77 2.90 2.98 3.00 2.90 2.90 3.18 3.41 3.65 3.88 3.85 3.77 3.79 3.63 3.45 3.31 3.03 2.80 2.59 2.45 2.52 2.57 2.49 2.36 2.21 2.05 1.79 1.70 1.55 1.52 1.60 1.58
1.32 1.36 1.44 1.58 1.67 1.74 1.95 2.36 2.52 2.63 2.73 2.82 2.87 3.00 3.04 3.04 3.10 3.32 3.50 3.73 3.85 3.78 3.68 3.64 3.53 3.33 3.15 2.99 2.73 2.49 2.41 2.46 2.41 2.50 2.60 2.38 2.19 1.96 1.79 1.76 1.75 1.64 1.53
1.28 1.34 1.44 1.58 1.66 1.58 1.71 1.93 2.16 2.32 2.43 2.50 2.52 2.52 2.64 2.80 3.04 3.35 3.44 3.50 3.54 3.57 3.54 3.42 3.28 3.24 3.22 3.15 2.87 2.55 2.31 2.27 2.31 2.37 2.47 2.35 2.18 1.95 1.80 1.83 1.77 1.64 1.62
1.29 1.34 1.50 1.51 1.55 1.61 1.61 1.66 1.72 1.93 2.13 2.18 2.19 2.29 2.40 2.59 2.80 3.03 3.18 3.13 3.16 3.36 3.26 3.03 2.85 2.76 2.68 2.76 2.66 2.37 2.21 2.16 2.25 2.33 2.39 2.34 2.22 2.05 1.91 1.84 1.85 1.86 1.83
1.34 1.35 1.40 1.38 1.37 1.49 1.58 1.60 1.71 1.88 1.95 1.91 1.93 1.97 2.03 2.22 2.40 2.55 2.66 2.69 2.46 2.52 2.44 2.29 2.16 2.04 2.00 2.01 1.87 1.72 1.67 1.76 1.95 2.05 2.22 2.26 2.18 2.08 2.01 1.97 1.95 1.93 1.86